Regional Weather Roundup
Issued by NWS

Home | Current Version | Previous Version | Graphics & Text | Print | Product List | Glossary On
Versions: 1 2 3 4 5 6 7 8 9 10 11 12 13 14 15 16 17 18 19 20 21 22 23 24 25 26 27 28 29 30 31 32 33 34 35 36 37 38 39 40 41 42 43 44 45 46 47 48 49 50
000
ASUS43 KFSD 310810
RWRSD

WEATHER ROUNDUP FOR SOUTH DAKOTA
NATIONAL WEATHER SERVICE SIOUX FALLS SD
300 AM CDT SUN AUG 31 2014

NOTE: "FAIR" INDICATES FEW OR NO CLOUDS BELOW 12,000 FEET WITH NO
SIGNIFICANT WEATHER AND/OR OBSTRUCTIONS TO VISIBILITY.


SDZ001>005-009-010-012>017-310900-
NORTHWEST AND NORTH CENTRAL SOUTH DAKOTA

CITY           SKY/WX    TMP DP  RH WIND       PRES   REMARKS
BUFFALO          N/A     59  57  93 W14       29.66F
FAITH            N/A     61  58  90 W13       29.67F
MOBRIDGE       CLOUDY    64  63  96 E8        29.61R
$$

SDZ012>016-024>037-041>051-057-063-072>074-310900-
SOUTHWEST AND SOUTH CENTRAL SOUTH DAKOTA

CITY           SKY/WX    TMP DP  RH WIND       PRES   REMARKS
RAPID CTY ARPT CLEAR     56  55  97 N5        29.75F
PIERRE         CLOUDY    68  60  75 W15       29.63R
CUSTER         PTCLDY    55  44  66 W8        29.88F
ELLSWORTH AFB  CLEAR     56  55  95 NW3       29.75F
PHILIP         PTCLDY    63  54  72 W7        29.70F
PINE RIDGE     MOCLDY    57  53  86 E5        29.79F
WINNER         FAIR      74  62  66 SW9       29.70R
$$

SDZ004>011-016>023-039-040-310900-
NORTHEAST SOUTH DAKOTA

CITY           SKY/WX    TMP DP  RH WIND       PRES   REMARKS
ABERDEEN       CLOUDY    63  60  90 SE9       29.65F
WATERTOWN      MOCLDY    63  58  83 SE12      29.72F
SISSETON         N/A     61  61 100 S12       29.71F
$$

SDZ017-020-022-023-036>040-048>070-310900-
SOUTHEAST SOUTH DAKOTA

CITY           SKY/WX    TMP DP  RH WIND       PRES   REMARKS
SIOUX FALLS    CLEAR     65  60  84 SE10      29.77F
HURON          MOCLDY    65  60  84 S15G21    29.67S
CHAMBERLAIN    MOCLDY    69  65  88 S6        29.66F
MITCHELL       MOCLDY    67  63  87 S15       29.69F
YANKTON        CLEAR     64  63  94 CALM      29.77R
$$

ABBREVIATIONS USED IN REMARKS
   TC - TEMPERATURE IN CELSIUS
  WCI - WIND CHILL INDEX
   HX - HEAT INDEX
  VSB - VISIBILITY




USA.gov is the U.S. government's official web portal to all federal, state and local government web resources and services.